Flag for Germany Past Weather in Voerde (Niederrhein), North Rhine-Westphalia, Germany — Yesterday and Last 2 Weeks

Now
66 °F

Partly sunny.


Feels Like: 66 °F
Forecast: 58 / 67 °F
Wind: 6 mph from North

Location: Duesseldorf

Current Time: Jun 28, 2016 at 11:39:15 AM

Latest Report: Jun 28, 2016 at 11:20 AM


Visibility: N/A

Pressure: 30.07 "Hg

Humidity: 68%

Dew Point: 55 °F

Location of Voerde (Niederrhein)Location

Past Weather in Voerde (Niederrhein) — Graph

°F

Voerde (Niederrhein) Temperature Yesterday

Maximum temperature yesterday: 64 °F (at 5:50 PM)
Minimum temperature yesterday: 54 °F (at 12:20 AM)
Average temperature yesterday: 59 °F

High & Low Weather Summary for the Past Weeks

 TemperatureHumidityPressure
High91 °F (Jun 23, 3:20 PM)100% (Jun 13, 9:50 PM)30.27 "Hg (Jun 13, 9:50 PM)
Low50 °F (Jun 16, 2:20 AM)44% (Jun 23, 5:20 PM)29.45 "Hg (Jun 14, 6:20 PM)
Average63 °F85%29.92 "Hg
* Reported Jun 13 10:20 AM — Jun 28 10:20 AM, Voerde (Niederrhein), Weather by CustomWeather, © 2016

Note: Actual official high and low records may vary slightly from our data, if they occured in-between our weather recording intervals... More about our weather records

Advertising

Voerde (Niederrhein) Weather History for the Previous 24 Hours

Scroll right to see more
 ConditionsComfort  
Time TempWeatherWind HumidityBarometerVisibility
10:20 AM
Tue, Jun 28
64 °FPartly sunny.9 mph73%30.07 "HgN/A
9:50 AM64 °FBroken clouds.8 mph73%30.07 "HgN/A
9:20 AM64 °FPartly sunny.9 mph73%30.07 "HgN/A
8:50 AM63 °FPartly sunny.7 mph73%30.07 "HgN/A
8:20 AM61 °FPartly sunny.6 mph88%30.07 "HgN/A
7:50 AM59 °FSunny.1 mph94%30.09 "Hg10 mi
7:20 AM59 °FSunny.2 mph94%30.07 "Hg10 mi
6:50 AM57 °FPassing clouds.5 mph100%30.07 "HgN/A
6:20 AM55 °FPassing clouds.3 mph100%30.07 "HgN/A
5:50 AM55 °FClear.2 mph100%30.09 "Hg10 mi
5:20 AM55 °FClear.3 mph100%30.09 "Hg10 mi
4:50 AM55 °FClear.2 mph100%30.09 "Hg10 mi
4:20 AM55 °FClear.1 mph100%30.09 "Hg10 mi
3:50 AM55 °FClear.1 mph100%30.09 "Hg10 mi
3:20 AM57 °FClear.3 mph100%30.09 "Hg10 mi
2:50 AM55 °FClear.1 mph100%30.09 "Hg10 mi
2:20 AM57 °FClear.2 mph100%30.09 "Hg10 mi
1:50 AM57 °FClear.2 mph100%30.09 "Hg10 mi
1:20 AM57 °FClear.2 mph100%30.09 "Hg10 mi
12:50 AM57 °FClear.1 mph100%30.09 "Hg10 mi
12:20 AM55 °FFog.2 mph100%30.09 "HgN/A
11:50 PM
Mon, Jun 27
55 °FFog.1 mph100%30.09 "HgN/A
11:20 PM57 °FFog.2 mph100%30.09 "HgN/A
10:50 PM57 °FSunny.2 mph100%30.09 "Hg10 mi
10:20 PM59 °FPartly sunny.5 mph94%30.09 "HgN/A
9:50 PM61 °FPartly sunny.5 mph94%30.09 "HgN/A
9:20 PM61 °FPartly sunny.5 mph94%30.07 "HgN/A
8:50 PM61 °FBroken clouds.3 mph94%30.07 "HgN/A
8:20 PM63 °FBroken clouds.6 mph88%30.07 "HgN/A
7:50 PM61 °FScattered showers. Partly sunny.12 mph94%30.07 "HgN/A
7:20 PM63 °FRain showers. Broken clouds.8 mph94%30.04 "HgN/A
6:50 PM64 °FBroken clouds.9 mph88%30.04 "HgN/A
6:20 PM64 °FPartly sunny.10 mph94%30.04 "HgN/A
5:50 PM64 °FBroken clouds.13 mph94%30.04 "HgN/A
5:20 PM63 °FDrizzle. Broken clouds.14 mph94%30.07 "HgN/A
4:50 PM63 °FDrizzle. Mostly cloudy.13 mph94%30.07 "Hg4 mi
4:20 PM63 °FDrizzle. Broken clouds.12 mph94%30.07 "Hg2 mi
3:50 PM63 °FDrizzle. Partly sunny.12 mph94%30.07 "Hg2 mi
3:20 PM63 °FDrizzle. Partly sunny.13 mph88%30.07 "HgN/A
2:50 PM63 °FDrizzle. Broken clouds.10 mph88%30.07 "HgN/A
2:20 PM63 °FDrizzle. Broken clouds.13 mph83%30.07 "Hg5 mi
1:50 PM63 °FDrizzle. Broken clouds.14 mph88%30.07 "Hg5 mi
1:20 PM63 °FDrizzle. Partly sunny.15 mph83%30.07 "Hg5 mi
12:50 PM61 °FPartly sunny.12 mph88%30.07 "HgN/A
12:20 PM61 °FDrizzle. Partly sunny.14 mph83%30.07 "HgN/A
11:50 AM63 °FPartly sunny.10 mph77%30.07 "HgN/A
11:20 AM63 °FBroken clouds.14 mph73%30.07 "HgN/A
Weather by CustomWeather, © 2016

See weather overviewHow to use our weather pages